Regional Weather Roundup
Issued by NWS

Home | Current Version | Previous Version | Graphics & Text | Print | Product List | Glossary Off
Versions: 1 2 3 4 5 6 7 8 9 10 11 12 13 14 15 16 17 18 19 20 21 22 23 24 25 26 27 28 29 30 31 32 33 34 35 36 37 38 39 40 41 42 43 44 45 46 47 48 49 50

000
ASUS43 KMPX 210001
RWRMN
WEATHER ROUNDUP FOR MINNESOTA
NATIONAL WEATHER SERVICE TWIN CITIES/CHANHASSEN MN
700 PM CDT SUN APR 20 2014


NOTE: "FAIR" INDICATES FEW OR NO CLOUDS BELOW 12,000 FEET WITH NO
SIGNIFICANT WEATHER AND/OR OBSTRUCTIONS TO VISIBILITY. N/A MEANS
CURRENT SKY AND/OR WEATHER CONDITIONS ARE NOT AVAILABLE.

MNZ060>063-068>070-210100-
   Twin Cities Metro

CITY           SKY/WX    TMP DP  RH WIND       PRES   REMARKS
TWIN CITIES    MOSUNNY   71  45  39 SE6       29.94F
6HR MIN TEMP:  69; 6HR MAX TEMP:  74;

ST PAUL        SUNNY     69  48  47 S6        29.94F
CRYSTAL        SUNNY     74  37  26 CALM      29.92F
BLAINE         SUNNY     75  34  22 CALM      29.94F
EDEN PRAIRIE   SUNNY     72  46  39 SE7       29.93F
6HR MIN TEMP:  71; 6HR MAX TEMP:  77;

LAKEVILLE      SUNNY     66  54  63 SE3       29.95S
SOUTH ST PAUL  SUNNY     73  51  47 SE7       29.94F
LAKE ELMO      FAIR      70  52  52 S8        29.96S
$$
MNZ001>005-007-008-013>017-022>024-027-028-210100-
   Northwest Minnesota

CITY           SKY/WX    TMP DP  RH WIND       PRES   REMARKS
BEMIDJI        MOSUNNY   66  32  27 E5        29.93S
HALLOCK        CLOUDY    63  50  63 SE12      29.83F
ROSEAU         CLOUDY    57  45  62 E10       29.91F
WARROAD        CLOUDY    48  37  66 E10       29.93F
THIEF RVR FALL CLOUDY    64  37  36 SE8       29.90F
CROOKSTON      CLOUDY    68  37  32 S13       29.88F
FOSSTON        PTSUNNY   66  34  30 S8        29.92F
DETROIT LAKES  MOSUNNY   68  32  26 S5        29.94F
PARK RAPIDS    SUNNY     69  26  20 SW6       29.94S
$$
MNZ006-009>011-018-025>026-210100-
   North Central Minnesota

CITY           SKY/WX    TMP DP  RH WIND       PRES   REMARKS
BAUDETTE       CLOUDY    61  39  44 E3        29.92F
FLAG ISLAND    CLOUDY    50  34  53 SE3       29.93F
INTL FALLS     PTSUNNY   57  36  45 E6        29.95F
6HR MIN TEMP:  54; 6HR MAX TEMP:  62;

WASKISH        CLOUDY    63  36  36 CALM      29.94F
BIG FORK       PTSUNNY   63  30  29 SE3       29.96F
LONGVILLE      SUNNY     70  27  19 CALM      29.95S
GRAND RAPIDS   SUNNY     66  28  24 CALM      29.97F
CRANE LAKE     PTSUNNY   55  32  41 CALM      29.99F
ORR            PTSUNNY   61  28  29 CALM      29.95S
COOK           MOSUNNY   63  30  29 CALM      29.98S
$$
MNZ012-019>021-037-210100-
   Northeast Minnesota

CITY           SKY/WX    TMP DP  RH WIND       PRES   REMARKS
DULUTH         CLEAR     64  30  27 NE3       29.98F
6HR MIN TEMP:  59; 6HR MAX TEMP:  66;

ELY            PTCLDY    61  28  29 CALM      29.99S
HIBBING        SUNNY     66  29  24 CALM      29.97F
EVELETH        SUNNY     63  28  27 W3        29.99F
DULUTH HARBOR  CLEAR     43  36  75 CALM      29.99S
TWO HARBORS    CLEAR     57  36  44 S3        29.97F
SILVER BAY     CLEAR     55  37  50 CALM      29.98S
GRAND MARAIS     N/A     41  34  76 VRB3      30.00S
G MARAIS ARPRT PTCLDY    54  27  35 W6        30.01S
$$
MNZ029>031-032-039>041-046>048-054>057-064-210100-
   West Central Minnesota

CITY           SKY/WX    TMP DP  RH WIND       PRES   REMARKS
FERGUS FALLS   SUNNY     72  27  18 S6        29.88S
WHEATON        SUNNY     73  37  27 S7        29.92F
MORRIS         MOSUNNY   72  36  26 SE7       29.92S
ALEXANDRIA     MOSUNNY   70  33  25 S3        29.95F
ELBOW LAKE     FAIR      70  35  28 S7        29.92F
WADENA         SUNNY     70  34  26 CALM      29.94S
GLENWOOD       SUNNY     72  36  26 E6        29.95F
APPLETON       SUNNY     73  34  23 SE7       29.92S
BENSON         SUNNY     72  36  26 S7        29.93F
ORTONVILLE     CLOUDY    73  34  23 E7        29.91F
MADISON        SUNNY     73  39  29 E7        29.91F
WILLMAR        FAIR      70  37  30 E5        29.95S
$$
MNZ033>034-036-042>043-049>051-058-059-210100-
   Central Minnesota

CITY           SKY/WX    TMP DP  RH WIND       PRES   REMARKS
ST CLOUD       SUNNY     72  32  23 E3        29.94F
6HR MIN TEMP:  67; 6HR MAX TEMP:  75;

SAUK CENTRE    FAIR      69  35  27 E5        29.95F
PAYNESVILLE    SUNNY     70  32  24 CALM      29.95S
AITKIN         SUNNY     70  21  16 S5        29.95F
PINE RIVER     SUNNY     70  36  28 E7        29.98S
BRAINERD       SUNNY     73  30  20 SE6       29.95F
STAPLES        SUNNY     70  25  18 CALM      29.94F
LONG PRAIRIE   FAIR      68  34  28 E3        29.96S
LITTLE FALLS   SUNNY     70  27  19 CALM      29.95F
LITCHFIELD     SUNNY     72  39  30 E5        29.95S
BUFFALO        MOSUNNY   70  37  30 N3        29.95S
MAPLE LAKE     PTSUNNY   70  39  33 CALM      29.95S
$$
MNZ037-044-045-052-053-210100-
   East Central Minnesota

CITY           SKY/WX    TMP DP  RH WIND       PRES   REMARKS
PRINCETON      SUNNY     70  32  24 NE5       29.96S
MORA           SUNNY     64  34  32 CALM      29.98S
CAMBRIDGE      SUNNY     72  46  40 NE3       29.94F
RUSH CITY      SUNNY     67  33  28 CALM      29.96F
HINCKLEY       FAIR      68  36  30 CALM      29.97S
CLOQUET        SUNNY     64  25  22 CALM      29.98S
MCGREGOR       SUNNY     68  32  26 SE3       29.97F
$$
MNZ071>073-080-081-089-090-097-098-210100-
   Southwest Minnesota

CITY           SKY/WX    TMP DP  RH WIND       PRES   REMARKS
MONTEVIDEO     MOSUNNY   73  39  29 SE8       29.93S
GRANITE FALLS  MOSUNNY   71  38  29 NE9       29.93S
CANBY          SUNNY     73  41  31 E8        29.91F
MARSHALL       SUNNY     73  37  27 E13       29.89F
REDWOOD FALLS  MOSUNNY   74  46  36 E6        29.91S
OLIVIA         MOSUNNY   72  41  33 NE6       29.92S
PIPESTONE      MOSUNNY   77  43  29 SE9       29.88F
WINDOM         SUNNY     75  50  41 E5        29.90S
WORTHINGTON    MOSUNNY   75  48  38 S9        29.91F
JACKSON        MOSUNNY   77  50  38 S6        29.90F
TRACY          SUNNY     74  48  39 E7        29.90F
SLAYTON        SUNNY     74  44  34 E6        29.90F
$$
MNZ065>067-074>077-082>085-091>093-210100-
   South Central Minnesota

CITY           SKY/WX    TMP DP  RH WIND       PRES   REMARKS
MANKATO        MOSUNNY   72  54  53 E8        29.93S
NEW ULM        SUNNY     72  54  53 E9        29.91F
ST JAMES       MOSUNNY   73  55  53 NE7       29.90F
FAIRMONT       MOSUNNY   73  54  49 SE8       29.91F
GLENCOE        SUNNY     72  44  36 E7        29.93S
FARIBAULT      MOSUNNY   72  50  46 CALM      29.95F
OWATONNA       MOSUNNY   70  55  60 E6        29.94F
WASECA         MOSUNNY   72  59  64 E8        29.95F
ALBERT LEA     PTSUNNY   68  57  68 E10       29.93F
$$
MNZ078>079-086>088-094>096-210100-
   Southeast Minnesota

CITY           SKY/WX    TMP DP  RH WIND       PRES   REMARKS
ROCHESTER      MOCLDY    65  56  72 E3        29.96F
6HR MIN TEMP:  55; 6HR MAX TEMP:  67; 6HR PCP: TRACE;

RED WING       CLEAR     66  54  63 SE6       29.95F
STANTON        SUNNY     68  55  62 S6        29.94F
DODGE CENTER   PTCLDY    70  55  60 SE3       29.96F
WINONA           N/A    N/A N/A N/A MISG        N/A
AUSTIN         MOCLDY    63  57  82 E6        29.94F
PRESTON        CLOUDY    64  56  77 E5        29.97F
$$
ABBREVIATIONS USED IN REMARKS
   TC - TEMPERATURES IN CELSIUS
  WCI - WIND CHILL INDEX
   HX - HEAT INDEX
  VSB - VISIBILITY
$$


USA.gov is the U.S. government's official web portal to all federal, state and local government web resources and services.